www.pogodaiklimat.ru

Погода и климат >> Архив погоды >> Соломоновы Острова >> Хониара


ПОГОДА в Хониаре

  • Прогноз погоды в Хониаре
  • Монитор погоды в Хониаре

АРХИВ ПОГОДЫ в Хониаре

Время (UTC), дата Ветер
(напр.,м/с)
 
Видим.   Явления Облачность Т
(С)
Тd
(С)
f
(%)
Тe
(С)
Тes
(С)
Комфортность P
(гПа)
Po
(гПа)
Тmin
(С)
Tmax
(С)
R
(мм)
R24
(мм)
S
(см)
09 12.04 Ю 2 15 км в посл. час морось 10/4 450 м
[Cb cap Cs]
+25.8 +25.6 99 +38 +38 очень
душно
1008.7 1002.4 0.4
12 12.04 Ю 2 15 км в посл. час ливневой дождь 10/4 450 м
[Cb cap Ac As]
+25.1 +24.7 98 +35 +35 очень
душно
1009.5 1003.2 +32.0 4
15 12.04 Ю 3 25 км слаб. дождь {гроза} 10/6 450 м
[Cb cap Ac trans]
+24.8 +24.6 99 +35 +35 очень
душно
1008.0 1001.7 11
18 12.04 Ю 2 10 км дождь {гроза, ливн. осадки} 10/6 450 м
[Cb cap As op]
+24.6 +24.4 99 +34 +34 очень
душно
1007.6 1001.3 13
21 12.04 Ю 1 15 км дождь {гроза, ливн. осадки} 10/5 480 м
[Cb cap As op Ci fib]
+24.7 +24.2 97 +34 +34 очень
душно
1009.3 1003.0 6
00 13.04 Ю 1 15 км слаб. дождь 10/5 540 м
[Cb cap As op]
+25.5 +25.5 100 +37 +39 очень
душно
1009.2 1002.9 +24.5 3 40
03 13.04 С 2 20 км осадки на расстоянии {ливн. осадки} 10/4 540 м
[Cu Sc As op]
+29.0 +25.5 81 +43 +43 опасность
перегрева
1006.7 1000.5 1
06 13.04 штиль 0 25 км осадки на расстоянии {ливн. осадки} 10/3 450 м
[Cu Sc Ac As]
+28.5 +25.7 85 +42 +43 опасность
перегрева
1006.4 1000.1 3
09 13.04 Ю 2 20 км гроза без осадков {морось} 10/6 450 м
[Cb cap Ac As]
+26.5 +25.8 96 +39 +39 очень
душно
1008.4 1002.1 0.0
12 13.04 Ю 3 20 км осадки на расстоянии {гроза, ливн. осадки} 10/5 450 м
[Cb cap Ac As]
+25.3 +24.9 98 +36 +36 очень
душно
1008.7 1002.4 +30.0 5
15 13.04 ЮЗ 2 20 км в посл. час морось {гроза} 6/5 450 м
[Cb cap Ac trans Ci ing]
+24.6 +23.9 96 +34 +34 очень
душно
1006.6 1000.3 0.6
18 13.04 ЮЗ 2 25 км осадки на расстоянии {морось} 9/4 450 м
[Cu Sc Ac As]
+25.8 +23.8 89 +35 +35 очень
душно
1006.1 999.8 0.0
21 13.04 Ю 2 25 км осадки на расстоянии 8/4 480 м
[Cu Sc Ac As Cs]
+26.5 +24.3 88 +37 +38 очень
душно
1008.0 1001.7
00 14.04 СЗ 2 25 км мгла 9/3 500 м
[Cu Sc Ac trans Cs]
+30.8 +24.8 70 +44 +51 опасность
перегрева
1007.9 1001.7 9
03 14.04 З 3 25 км мгла 9/3 540 м
[Cu Sc Ac trans Cs]
+32.0 +23.4 60 +43 +46 опасность
перегрева
1005.7 999.5
06 14.04 ЮЗ 1 25 км мгла 9/4 540 м
[Cu Sc Ac trans Cs]
+30.9 +22.9 62 +41 +41 опасность
перегрева
1005.9 999.7
09 14.04 З 2 25 км мгла 5/1 450 м
[Cu med, cong Ac trans Cs]
+27.5 +23.1 77 +37 +37 очень
душно
1007.8 1001.5
12 14.04 З 2 25 км мгла 6/1 450 м
[Cu med, cong Ac trans Cs]
+27.3 +22.9 77 +36 +36 очень
душно
1008.4 1002.1 +30.5
15 14.04 штиль 0 25 км мгла 3/1 450 м
[Cu med, cong Ci fib]
+23.8 +21.7 88 +30 +30 очень
душно
1006.5 1000.1
18 14.04 Ю 3 25 км осадки на расстоянии 9/5 450 м
[Cu Sc Ac trans Cs]
+24.0 +21.7 87 +31 +31 очень
душно
1006.5 1000.2
00 15.04 С 3 25 км мгла 9/1 570 м
[Cu med, cong Cs]
+30.5 +24.8 72 +44 +55 опасность
перегрева
1008.7 1002.5 +24.5
03 15.04 СЗ 1 25 км осадки на расстоянии 9/3 570 м
[Cu med, cong Cs]
+32.5 +26.0 69 +48 +50 опасность
перегрева
1006.0 999.8
06 15.04 С 2 25 км осадки на расстоянии 9/3 500 м
[Cb cap Ac trans Cs]
+30.6 +24.0 68 +42 +43 опасность
перегрева
1006.3 1000.1
09 15.04 Ю 3 25 км мгла 9/3 480 м
[Cu Sc Ac trans Cs]
+27.0 +22.4 76 +35 +35 очень
душно
1009.3 1003.0
12 15.04 Ю 2 25 км мгла 9/3 450 м
[Cu Sc Ac trans Cs]
+24.6 +22.5 88 +32 +32 очень
душно
1009.9 1003.5 +33.2
15 15.04 Ю 2 25 км мгла 9/1 450 м
[Cu Sc Ac trans Cs]
+25.0 +22.8 88 +33 +33 очень
душно
1008.0 1001.7
18 15.04 Ю 2 25 км мгла 9/1 450 м
[Cu Sc Ac trans Cs]
+24.0 +22.5 91 +31 +31 очень
душно
1007.2 1000.8
21 15.04 Ю 3 25 км мгла 9/1 540 м
[Cu med, cong Ac trans Cs]
+25.6 +23.0 86 +34 +35 очень
душно
1010.3 1004.0
00 16.04 С 2 25 км мгла 9/1 600 м
[Cu med, cong Cs]
+31.5 +24.2 65 +43 +57 опасность
перегрева
1009.5 1003.3 +24.2
03 16.04 С 2 25 км осадки на расстоянии 9/3 600 м
[Cb cap Ac trans Cs]
+31.5 +25.2 69 +45 +47 опасность
перегрева
1007.1 1000.9
06 16.04 СВ 1 25 км осадки на расстоянии 8/3 570 м
[Cu Sc Cs]
+30.0 +24.4 72 +42 +44 опасность
перегрева
1006.8 1000.6
09 16.04 Ю 2 25 км осадки на расстоянии 9/5 500 м
[Cu Sc Ac trans Cs]
+26.9 +24.4 86 +38 +38 очень
душно
1008.7 1002.4
12 16.04 Ю 2 25 км мгла 4/3 480 м
[Cu med, cong Cs]
+25.5 +24.2 93 +35 +35 очень
душно
1009.5 1003.2 +32.3
15 16.04 Ю 2 25 км мгла 5/1 450 м
[Cu med, cong Ac As Cs]
+25.4 +23.2 88 +34 +34 очень
душно
1008.6 1002.3
18 16.04 Ю 3 25 км мгла 5/1 450 м
[Cu med, cong Ac As Cs]
+25.0 +21.2 79 +32 +32 очень
душно
1007.7 1001.4
21 16.04 Ю 2 25 км мгла 8/1 500 м
[Cu Sc Ac As Cs]
+26.0 +23.4 86 +35 +36 очень
душно
1009.9 1003.6
00 17.04 С 2 25 км мгла 9/1 540 м
[Cu Sc Ac trans Cs]
+30.0 +24.3 72 +42 +51 опасность
перегрева
1010.6 1004.4 +25.0
03 17.04 С 2 25 км мгла 9/1 540 м
[Cu Sc Ac trans Cs]
+31.0 +23.8 66 +43 +44 опасность
перегрева
1008.7 1002.5
06 17.04 СВ 2 25 км мгла 10/4 540 м
[Cu Sc Cs]
+29.5 +23.7 71 +40 +41 очень
душно
1007.9 1001.7
09 17.04 Ю 2 25 км мгла 10/5 500 м
[Cu Sc Cs]
+26.5 +24.3 88 +37 +37 очень
душно
1009.8 1003.5
12 17.04 Ю 3 25 км мгла 10/8 480 м
[Cu Sc Cs]
+26.0 +23.8 88 +36 +36 очень
душно
1010.7 1004.4 +31.6
15 17.04 Ю 3 30 км 8/6 450 м
[Cb cap Ac trans Cs]
+26.0 +24.6 92 +37 +37 очень
душно
1009.3 1003.0
18 17.04 Ю 4 25 км мгла 8/4 450 м
[Cu Sc Ac trans Cs]
+24.8 +22.9 89 +33 +33 очень
душно
1008.9 1002.6
21 17.04 Ю 4 25 км мгла 6/3 540 м
[Cb cap Ac trans Cs]
+25.5 +22.5 83 +33 +34 очень
душно
1010.6 1004.3
00 18.04 С 1 25 км мгла 4/1 600 м
[Cu Sc Ac trans Cs]
+31.0 +25.4 72 +45 +60 опасность
перегрева
1011.0 1004.8 +24.5
03 18.04 С 3 25 км мгла 3/1 600 м
[Cu Sc Ac trans Cs]
+32.2 +24.6 64 +45 +55 опасность
перегрева
1008.6 1002.4
06 18.04 С 1 25 км мгла 8/1 540 м
[Cu Sc Ac trans Cs]
+30.5 +23.3 65 +41 +42 опасность
перегрева
1008.2 1002.0
09 18.04 Ю 2 25 км мгла 9/1 480 м
[Cu Sc Ac trans Cs]
+26.5 +23.6 84 +36 +36 очень
душно
1010.6 1004.3
12 18.04 Ю 3 25 км мгла 9/1 480 м
[Cu med, cong Ac trans Cs]
+25.5 +24.1 92 +35 +35 очень
душно
1011.4 1005.1 +33.0
15 18.04 Ю 3 25 км мгла 6/1 450 м
[Cu Sc Ac trans Cs]
+24.9 +22.8 88 +33 +33 очень
душно
1009.9 1003.6
18 18.04 Ю 4 25 км мгла 4/1 450 м
[Cu med, cong Ac trans Cs]
+24.5 +21.6 84 +31 +31 очень
душно
1008.6 1002.3
21 18.04 Ю 2 30 км 4/1 480 м
[Cu Sc Ac trans Cs]
+25.6 +23.2 87 +34 +36 очень
душно
1010.6 1004.3
00 19.04 СВ 3 30 км 6/1 540 м
[Cu Sc Ac trans Cs]
+31.6 +25.0 68 +45 +55 опасность
перегрева
1010.7 1004.5 +24.0
03 19.04 С 3 25 км осадки на расстоянии 9/4 570 м
[Cb cap Ac trans Cs]
+31.4 +24.7 68 +45 +46 опасность
перегрева
1008.1 1001.9
06 19.04 Ю 3 25 км осадки на расстоянии 9/5 500 м
[Cb cap Ac trans Cs]
+27.8 +24.2 81 +39 +39 очень
душно
1007.6 1001.3

 

Местоположение метеостанции Хониара (Соломоновы Острова): широта -9.42 долгота 159.97 высота над уровнем моря 55 м.

В архиве по умолчанию представлена погода в Хониаре за последнюю неделю. Архивные данные за месяц целиком и за предыдущие месяцы, начиная с января 2011 года, Вы можете получить, выбрав интересующий диапазон дат из раскрывающегося списка и нажав кнопку "Ввод!".


*Определитесь, кто Вы:
робот инопланетянин человек

Внимание! Время в таблицах - всемирное. Для получения местного времени необходимо прибавить поправку, которая равна 11 ч.

Смотрите также архив погоды в соседних городах и на ближайших метеорологических станциях:

Погода в Хониара аэропорту (Соломоновы Острова) (9 км)
Погода в Ауки (Соломоновы Острова) (110 км)
Погода в Манде (Соломоновы Острова) (322 км)
Погода на Острове Таро (Соломоновы Острова) (495 км)
Погода на Островах Санта-Круз (Соломоновы Острова) (653 км)
Погода на Мисиме (Папуа Новая Гвинея) (794 км)
Погода на Линуа (Вануату) (845 км)
Погода в Соле (Вануату) (961 км)
Погода в Токуа (Папуа Новая Гвинея) (1013 км)
Погода в Санто-Пекоа (Вануату) (1037 км)

Пояснения к столбцам:

Ветер - указаны скорость ветра в м/с - средняя за 10 мин, порывы в срок и между сроками (в фигурных скобках) и направление, откуда дует ветер: С - северный, СВ - северо-восточный, В - восточный, ЮВ - юго-восточный, Ю - южный, ЮЗ - юго-западный, З - западный, СЗ - северо-западный.
Видимость - горизонтальная дальность видимости в метрах или километрах. При видимости от 1 до 10 км при отсутствии осадков обычно наблюдается дымка, при ухудшении видимости до 1 км и менее - туман. В сухую погоду видимость может ухудшаться дымом, пылью или мглою.
Явления - указаны атмосферные явления, наблюдавшиеся в срок или в последний час перед сроком; фигурными скобками обозначены явления, наблюдавшиеся между сроками (за 1-3 часа до срока); квадратными скобками обозначены град или гололедные отложения с указанием их диаметра в мм.
Облачность - указаны через наклонную черту общая и нижняя облачность в баллах и высота нижней границы облаков в метрах; квадратными скобками обозначены формы облаков: Ci - перистые, Cs - перисто-слоистые, Cc - перисто-кучевые, Ac - высококучевые, As - высокослоистые, Sc - слоисто-кучевые, Ns - слоисто-дождевые, Cu - кучевые, Cb - кучево-дождевые. Подробнее классификацию облаков см. в Атласе облаков (PDF).
T - Температура воздуха - температура, измеренная на высоте 2 м над землей.
Td - Температура точки росы - температура, при понижении до которой содержащийся в воздухе водяной пар достигнет насыщения.
f - Относительная влажность воздуха - влажноcть воздуха, измеренная на высоте 2 м над землей.
Te - Эффективная температура - температура, которую ощущает одетый по сезону человек в тени. Характеристика душности погоды. При расчете учитывается влияние влажности воздуха и скорости ветра на теплоощущения человека.
Tes - Эффективная температура на солнце - температура, которую ощущает человек, с поправкой на солнечный нагрев. Характеристика знойности погоды. Зависит от высоты солнца над горизонтом, облачности и скорости ветра. Ночью, в пасмурную погоду, а также при ветре 12 м/с и более поправка равна нулю.
P - Атмосферное давление - приведенное к уровню моря атмосферное давление.
Po - Атмосферное давление - измеренное на уровне метеостанции атмосферное давление.
Tmin - Минимальная температура - минимум температуры воздуха на высоте 2 м над землей.
Tmax - Максимальная температура - максимум температуры воздуха на высоте 2 м над землей.
R - Количество осадков - Количество выпавших осадков за период времени, мм. При наведении курсора мыши на число - период времени, за который выпало указанное количество осадков.
R24 - Количество осадков - Количество выпавших осадков за 24 часа, мм.
S - Снежный покров - Высота снежного покрова, см. При наведении курсора мыши на число - состояние снежного покрова и степень покрытия местности в баллах.